Weather History for Molokai, HI

Change the Weather History Date:

Thursday, December 20, 2012

  Actual Average Record
Temperature  
Mean Temperature 72 °F -  
Max Temperature 75 °F 78 °F 84 °F (1979)
Min Temperature 69 °F 65 °F 58 °F (1976)
Cooling Degree Days 7    
Growing Degree Days 22 (Base 50)    
Moisture  
Dew Point 62 °F    
Average Humidity 72    
Maximum Humidity 84    
Minimum Humidity 63    
Precipitation  
Precipitation 0.00 in - - ()
Sea Level Pressure  
Sea Level Pressure 30.03 in    
Wind  
Wind Speed 17 mph (NE)    
Max Wind Speed 23 mph    
Max Gust Speed 44 mph    
Visibility 9 miles    
Events Rain    
Averages and records for this station are not official NWS values.
T = Trace of Precipitation, MM = Missing Value Source: NWS Daily Summary

Daily Weather History Graph

Daily Weather History Graph

Search for Another Location

Airport:

Trip Planner

Search our weather history database for the weather conditions in past years. The results will help you decide how hot, cold, wet, or windy it might be!

Date:

Astronomy

Dec. 20, 2012 Rise Set
Actual Time 7:00 AM HST 5:51 PM HST
Civil Twilight 6:36 AM HST 6:16 PM HST
Nautical Twilight 6:09 AM HST 6:43 PM HST
Astronomical Twilight 5:41 AM HST 7:11 PM HST
Moon 12:41 PM HST (12/20) 12:36 AM HST (12/20)
Length of Visible Light 11h 39m
Length of Day
10h 50m
First Quarter, 57% of the Moon is Illuminated
Dec 20
First Quarter
Dec 28
Full
Jan 4
Last Quarter
Jan 11
New
Jan 18
First Quarter

Hourly Weather History & Observations

Time (HST) Temp. Dew Point Humidity Pressure Visibility Wind Dir Wind Speed Gust Speed Precip Events Conditions
12:54 AM 71.1 °F 63.0 °F 75% 30.06 in 10.0 mi NE 16.1 mph 23.0 mph N/A   Partly Cloudy
1:54 AM 72.0 °F 62.1 °F 71% 30.05 in 10.0 mi NE 13.8 mph 26.5 mph N/A   Clear
2:54 AM 71.1 °F 63.0 °F 75% 30.03 in 10.0 mi NE 12.7 mph 26.5 mph 0.00 in   Overcast
3:54 AM 70.0 °F 64.0 °F 81% 30.02 in 9.0 mi NE 19.6 mph 29.9 mph 0.00 in Rain Light Rain
4:54 AM 69.1 °F 64.0 °F 84% 30.03 in 9.0 mi NE 18.4 mph 28.8 mph 0.00 in Rain Light Rain
5:14 AM 69.8 °F 64.4 °F 83% 30.02 in 10.0 mi NE 16.1 mph 24.2 mph 0.00 in   Mostly Cloudy
5:54 AM 69.1 °F 63.0 °F 81% 30.04 in 10.0 mi NE 17.3 mph 25.3 mph 0.00 in   Partly Cloudy
6:10 AM 69.8 °F 62.6 °F 78% 30.03 in 10.0 mi NE 17.3 mph 31.1 mph 0.00 in Rain Light Rain
6:54 AM 69.1 °F 63.0 °F 81% 30.05 in 10.0 mi NE 15.0 mph 26.5 mph 0.00 in   Mostly Cloudy
7:54 AM 71.1 °F 62.1 °F 73% 30.06 in 9.0 mi NE 16.1 mph 28.8 mph N/A   Scattered Clouds
8:54 AM 70.0 °F 63.0 °F 78% 30.08 in 8.0 mi NE 11.5 mph 24.2 mph 0.00 in Rain Light Rain
9:54 AM 72.0 °F 63.0 °F 73% 30.06 in 9.0 mi NE 18.4 mph 33.4 mph 0.00 in   Scattered Clouds
10:54 AM 73.0 °F 63.0 °F 71% 30.04 in 10.0 mi NE 21.9 mph 41.4 mph N/A   Partly Cloudy
11:54 AM 75.9 °F 63.0 °F 64% 30.03 in 10.0 mi NE 21.9 mph 43.7 mph N/A   Partly Cloudy
12:54 PM 75.0 °F 64.9 °F 71% 30.01 in 7.0 mi NE 17.3 mph 33.4 mph 0.00 in Rain Light Rain
1:01 PM 73.4 °F 64.4 °F 73% 29.99 in 6.0 mi NNE 19.6 mph 33.4 mph 0.00 in Rain Light Rain
1:54 PM 73.0 °F 64.9 °F 76% 29.99 in 6.0 mi NNE 23.0 mph 32.2 mph 0.00 in Rain Light Rain
2:35 PM 75.2 °F 62.6 °F 65% 29.98 in 10.0 mi NE 17.3 mph 36.8 mph 0.00 in   Mostly Cloudy
2:54 PM 73.0 °F 63.0 °F 71% 29.98 in 10.0 mi NE 17.3 mph 34.5 mph 0.00 in Rain Light Rain
3:01 PM 75.2 °F 62.6 °F 65% 29.97 in 10.0 mi NE 21.9 mph 32.2 mph 0.00 in Rain Light Rain
3:13 PM 73.4 °F 62.6 °F 69% 29.99 in 10.0 mi NNE 16.1 mph 32.2 mph 0.00 in Rain Light Rain
3:54 PM 73.9 °F 62.1 °F 66% 29.98 in 10.0 mi NE 21.9 mph 35.7 mph 0.00 in   Scattered Clouds
4:54 PM 73.0 °F 62.1 °F 68% 30.00 in 10.0 mi NE 18.4 mph 31.1 mph N/A   Partly Cloudy
5:54 PM 72.0 °F 61.0 °F 68% 30.02 in 10.0 mi NE 19.6 mph 29.9 mph N/A   Partly Cloudy
6:54 PM 71.1 °F 61.0 °F 70% 30.05 in 10.0 mi NE 13.8 mph 26.5 mph N/A   Clear
7:54 PM 71.1 °F 60.1 °F 68% 30.07 in 10.0 mi NE 13.8 mph 25.3 mph N/A   Clear
8:54 PM 71.1 °F 60.1 °F 68% 30.08 in 10.0 mi ENE 17.3 mph 28.8 mph N/A   Clear
9:54 PM 71.1 °F 57.9 °F 63% 30.06 in 10.0 mi NE 18.4 mph 31.1 mph N/A   Clear
10:54 PM 71.1 °F 59.0 °F 66% 30.07 in 10.0 mi NE 17.3 mph 38.0 mph N/A   Clear
11:54 PM 71.1 °F 57.9 °F 63% 30.06 in 10.0 mi NE 13.8 mph 28.8 mph N/A   Clear